100LL.CA
Aviation Fuel Pricing for Canadians
Please upgrade your browser - Tested with IE9, FireFox, Chrome, Safari

Fuel Airports Other Help
Prices Economy Info List METAR/TAF Kneeboard Help

Reference Airport: Big Trout Lake, ON
N 53 49 04  W 089 53 49
Provinces to show:

CYTL Big Trout Lake, ON
OTHER SITES
FlightAware FltPlan Google Maps SkyVector
WEATHER
METARCYTL 251300Z AUTO 31007KT 9SM OVC013 02/02 A2979 RMK SLP101
TAFTAF CYTL 250738Z 2508/2520 32010G20KT 4SM -DZ BR OVC005 TEMPO 2508/2515 P6SM NSW OVC010 FM251500 29012KT P6SM OVC012 RMK FCST BASED ON AUTO OBS. NXT FCST BY 251400Z
REF N 53 49 04  W 089 53 49    0.6SW    5W (2012)
UTC-6(5)    Elev 730    A5017 LO3 HI4 CAP
OPR Govt of Ontario 807-473-2082
Cert
PFC-1,4
FLT PLN NOTAM FILE CYXL
FIC Winnipeg 866-WXBRIEF (Toll free within Canada) or 866-541-4103 (Toll free within Canada & USA)
WXMETAR AUTO H24 (see COMM). WxCam TAF H24, issue times: 02, 08, 14, 20Z.
SERVICES
RWY DATARwy 14(139)/32(319) 3906x100 gravel Rwy 32 up 0.51%
RCRAprt Foreman 807-537-2366 Ltd maint 14-23Z Mon-Fri exc hols. Rwy strength and cond subject to seasonal & climatic var.
LIGHTING14-(TE ME) AP, 32-(TE ME) AP ARCAL-123.2 type K
COMM
RCOWinnipeg rdo 123.55 (FISE) 126.7 (bcst)
ATFtfc 123.2 5NM 3800 ASL
PALWinnipeg Ctr 135.15
AWOS128.7
NAV
NDBYTL 328 (M) N53 48 57 W89 54 46 Unmonitored
Effective 0901Z 0901Z 19 July 2018 to 0901Z 13 September 2018


Please Send Updates!

Desktop Version ]  [ Mobile Version ]  [ Disclaimer ]